Regional Weather Roundup
Issued by NWS Northern Indiana

Home | Current Version | Previous Version | Text Only | Print | Product List | Glossary On
Versions: 1 2 3 4 5 6 7 8 9 10 11 12 13 14 15 16 17 18 19 20 21 22 23 24 25 26 27 28 29 30 31 32 33 34 35 36 37 38 39 40 41 42 43 44 45 46 47 48 49 50
000
ASUS43 KIWX 042110
RWRIWX

KIWX WEATHER ROUNDUP
NATIONAL WEATHER SERVICE NORTHERN INDIANA
500 PM EDT WED MAY 04 2016

NOTE: "FAIR" INDICATES FEW OR NO CLOUDS BELOW 12,000 FEET WITH NO
SIGNIFICANT WEATHER AND/OR OBSTRUCTIONS TO VISIBILITY.

* THESE STATIONS ARE NOT UNDER NWS QUALITY CONTROL. THEY ALSO MAY NOT
  REPORT WEATHER SUCH AS PRECIPITATION OR FOG.

INZ001>027-042200-
NORTHERN INDIANA

CITY           SKY/WX    TMP DP  RH WIND       PRES   REMARKS
GARY*          CLOUDY    46  41  81 N12G23    29.82R
VALPARAISO     CLOUDY    44  35  70 N16G24    29.80R
MICHIGAN CITY* CLOUDY    43  36  75 NW16G24   29.79S
LAPORTE*       CLOUDY    46  37  69 N25G32    29.78R
KNOX*          CLOUDY    45  28  53 N30G36    29.77R
SOUTH BEND     LGT RAIN  41  37  86 N25G31    29.75R
ELKHART*       CLOUDY    41  39  93 NW16G29   29.73R
GOSHEN         LGT RAIN  44  36  73 NW21G33   29.71R
MONTICELLO*    CLOUDY    50  35  57 N24       29.77R
LOGANSPORT*    CLOUDY    48  37  66 NW14G25   29.76S
ROCHESTER*     PTSUNNY   52  37  58 NW24G33   29.74R
WARSAW*        CLOUDY    45  37  76 NW15G25   29.72R
ANGOLA*        CLOUDY    45  36  70 W14       29.65R
FORT WAYNE     CLOUDY    47  39  74 NW15G31   29.68R
HUNTINGTON*    CLOUDY    47  38  70 NW16G28   29.70S
PERU/GRISSOM   PTSUNNY   52  37  58 NW26G33   29.72F
MARION*        CLOUDY    47  40  75 NW18G33   29.74R

$$
INZ028>050-042200-
CENTRAL INDIANA

CITY           SKY/WX    TMP DP  RH WIND       PRES   REMARKS
LAFAYETTE      CLOUDY    50  37  61 N14       29.77R
KOKOMO*        CLOUDY    50  37  62 NW21G35   29.74R
MUNCIE*        CLOUDY    50  40  68 NW22G31   29.71R
INDIANAPOLIS   PTSUNNY   54  39  57 NW16G24   29.73R

$$
MIZ043>046-050>051-056>058-064>065-071>073-077>080-042200-
SOUTHWEST LOWER MICHIGAN

CITY           SKY/WX    TMP DP  RH WIND       PRES   REMARKS
BATTLE CREEK   LGT RAIN  43  39  86 NW16      29.64R
BENTON HARBOR  RAIN      40  35  83 N8G33     29.75R
COLDWATER*     CLOUDY    44  40  87 W16G25    29.63S
HILLSDALE*     CLOUDY    45  40  83 NW12G21   29.61R HAZE
HOLLAND        LGT RAIN N/A N/A N/A NW14G23   29.70R
GRAND RAPIDS   LGT RAIN  43  40  89 NW16G25   29.65R
KALAMAZOO      LGT RAIN  42  37  82 NW16G25   29.67R
STURGIS*       LGT RAIN  41  38  91 NW9G21    29.66R
THREE RIVERS*  DRIZZLE   43  38  85 NW16G26   29.68R

$$
OHZ001>008-015>018-024>025-042200-
NORTHWEST OHIO

CITY           SKY/WX    TMP DP  RH WIND       PRES   REMARKS
WAUSEON*         N/A     48 N/A N/A W15       29.62R
DEFIANCE       LGT RAIN  49  42  77 W9        29.64R
FINDLAY        CLOUDY    50  41  71 W16       29.63R
TOLEDO EXPRESS CLOUDY    51  41  68 W12G20    29.60R
TOLEDO METCALF CLOUDY    54  43  66 W16       29.61R
LIMA           CLOUDY    48  42  80 NW18G24   29.64R

$$
AND FOR LAKE MICHIGAN COASTAL AND OPEN LAKE BUOY OBSERVATIONS

STATION/POSITION TEMP    WIND        PRES    VSBY  WAVE
                 AIR SEA DIR/SP/G                  HT/PER
                 (F)     (DEG/KT/KT) (MB)    (MI)  (FT/S)
CALUMET HARBOR    45     330/ 15/ 21 1009.0R
MICHIGAN CITY     43     320/ 24/ 27   N/A
BURNS HARBOR      44     360/ 22     1009.5R
SAINT JOSEPH      42     320/ 28/ 34 1008.1S
SOUTH LAKE BUOY   41 40  360/ 21/ 27 1007.8R         7/ 7
4 MI NW BRIDGMAN  43 47                N/A          10/ 8

$$
&&




USA.gov is the U.S. government's official web portal to all federal, state and local government web resources and services.